KL7GG Weather Reports


Display with metric or nautical units.
time (UTC)temp
F
wind
direction
speed
MPH
gust
MPH
rain 1hr
in
rain 24hr
in
rain mn
in
humidity
%
barometer
mb
20260510075910 41 0 0.0 0.0 0.00 0.03 0.03 90 991.9
20260510074406 41 0 0.0 0.0 0.00 0.03 0.03 90 991.9
20260510072902 41 0 0.0 0.0 0.00 0.04 0.03 90 991.7
20260510071358 41 0 0.0 4.0 0.00 0.04 0.03 89 991.6
20260510065854 42 0 0.0 0.0 0.00 0.05 0.03 88 991.5
20260510064350 42 0 0.0 1.0 0.00 0.05 0.03 88 991.5
20260510062846 42 0 0.0 0.0 0.00 0.05 0.03 87 991.2
20260510061342 43 0 0.0 2.0 0.00 0.05 0.03 87 991.0
20260510055838 43 0 0.0 0.0 0.00 0.06 0.03 85 990.9
20260510054334 44 0 0.0 1.0 0.00 0.06 0.03 85 991.0
20260510052830 44 0 0.0 1.0 0.00 0.06 0.03 84 990.7
20260510051326 45 0 0.0 0.0 0.00 0.06 0.03 83 990.5
20260510045822 45 0 0.0 0.0 0.00 0.06 0.03 82 990.5
20260510044318 46 0 0.0 0.0 0.00 0.06 0.03 81 990.6
20260510042813 47 0 0.0 0.0 0.00 0.06 0.03 79 990.6
20260510041309 48 0 0.0 0.0 0.00 0.06 0.03 77 990.6
20260510035806 48 0 0.0 1.0 0.00 0.06 0.03 75 990.4
20260510034302 49 0 0.0 4.0 0.00 0.06 0.03 73 990.4
20260510032757 51 0 0.0 5.0 0.00 0.06 0.03 69 990.4
20260510031253 51 277 3.0 7.0 0.00 0.06 0.03 67 990.5
20260510025743 50 0 0.0 1.0 0.00 0.06 0.03 69 990.5
20260510024239 49 0 0.0 6.0 0.00 0.06 0.03 73 990.4
20260510022735 48 306 1.0 5.0 0.00 0.06 0.03 76 990.5
20260510021232 48 0 0.0 5.0 0.00 0.06 0.03 75 990.5
20260510015728 47 0 0.0 6.0 0.00 0.06 0.03 76 990.5
20260510014224 47 304 2.0 7.0 0.00 0.06 0.03 76 990.5
20260510012719 47 313 1.0 9.0 0.00 0.06 0.03 76 990.4
20260510011215 48 313 1.0 10.0 0.00 0.06 0.03 77 990.3
20260510005709 48 311 4.0 11.0 0.00 0.06 0.03 75 990.3
20260510004205 48 301 9.0 12.0 0.00 0.06 0.03 76 990.4
20260510002701 47 297 4.0 10.0 0.00 0.06 0.03 77 990.4
20260510001157 47 313 2.0 9.0 0.00 0.06 0.03 76 990.3
20260509235653 47 334 2.0 7.0 0.00 0.06 0.03 77 990.4
20260509234147 47 299 6.0 10.0 0.00 0.06 0.03 77 990.2
20260509232643 47 318 5.0 9.0 0.00 0.06 0.03 77 990.2
20260509231139 47 297 3.0 7.0 0.00 0.06 0.03 76 990.4
20260509225635 47 286 1.0 6.0 0.00 0.06 0.03 78 990.4
20260509224131 46 286 1.0 5.0 0.00 0.06 0.03 77 990.4
20260509222627 45 0 0.0 4.0 0.00 0.06 0.03 80 990.5
20260509221123 45 283 4.0 7.0 0.00 0.06 0.03 80 990.4
20260509215619 44 286 3.0 7.0 0.00 0.06 0.03 81 990.5
20260509214115 45 308 3.0 7.0 0.00 0.06 0.03 81 990.4
20260509212611 44 0 0.0 6.0 0.00 0.06 0.03 82 990.3
20260509211107 44 331 4.0 8.0 0.00 0.06 0.03 83 990.3
20260509205603 44 321 4.0 6.0 0.00 0.06 0.03 82 990.4
20260509202553 42 0 0.0 0.0 0.00 0.06 0.03 87 990.4
20260509195543 41 310 1.0 4.0 0.00 0.06 0.03 89 990.5
20260509194039 40 283 1.0 3.0 0.00 0.06 0.03 90 990.4
20260509192535 40 0 0.0 4.0 0.00 0.06 0.03 90 990.4
20260509185525 39 0 0.0 0.0 0.00 0.06 0.03 92 990.2
20260509184021 39 0 0.0 0.0 0.00 0.06 0.03 94 990.3
20260509182518 39 0 0.0 2.0 0.00 0.06 0.03 95 990.5
20260509181013 38 0 0.0 0.0 0.00 0.06 0.03 95 990.5
20260509175509 37 0 0.0 1.0 0.00 0.06 0.03 95 990.5
20260509174005 37 0 0.0 0.0 0.00 0.06 0.03 95 990.5
20260509172501 36 0 0.0 0.0 0.00 0.06 0.03 94 990.6
20260509170957 36 0 0.0 0.0 0.00 0.06 0.03 95 990.7
20260509165453 35 0 0.0 0.0 0.00 0.06 0.03 94 990.9
20260509163947 35 0 0.0 0.0 0.00 0.06 0.03 94 991.0
20260509160937 34 0 0.0 0.0 0.00 0.06 0.03 94 991.1
20260509155433 33 0 0.0 0.0 0.00 0.06 0.03 94 991.1
20260509153929 33 0 0.0 0.0 0.00 0.06 0.03 94 991.2
20260509152425 32 0 0.0 0.0 0.01 0.06 0.03 94 991.3
20260509150921 32 0 0.0 0.0 0.01 0.06 0.03 94 991.4
20260509145417 32 0 0.0 0.0 0.02 0.06 0.03 93 991.5
20260509143913 33 0 0.0 0.0 0.02 0.06 0.03 93 991.6
20260509142409 33 0 0.0 0.0 0.01 0.05 0.02 93 991.7
20260509140905 33 0 0.0 0.0 0.01 0.05 0.02 93 991.9
20260509135401 34 0 0.0 0.0 0.00 0.04 0.01 93 992.0
20260509133857 34 0 0.0 0.0 0.00 0.04 0.01 93 992.1
20260509132353 34 0 0.0 0.0 0.00 0.04 0.01 93 992.4
20260509130849 34 0 0.0 0.0 0.01 0.04 0.01 93 992.6
20260509125345 34 0 0.0 0.0 0.01 0.04 0.01 93 992.7
20260509123839 34 0 0.0 0.0 0.01 0.04 0.01 93 992.9
20260509120829 35 0 0.0 0.0 0.00 0.03 0.00 93 993.4
20260509115325 35 0 0.0 0.0 0.00 0.03 0.00 93 993.6
20260509113819 35 0 0.0 0.0 0.00 0.03 0.00 93 993.7
20260509112315 36 0 0.0 0.0 0.00 0.03 0.00 93 994.0
20260509110811 36 0 0.0 0.0 0.00 0.03 0.00 93 994.2
20260509105307 36 0 0.0 0.0 0.00 0.03 0.00 92 994.5
20260509103803 36 0 0.0 0.0 0.00 0.03 0.00 92 994.7
20260509102259 36 0 0.0 0.0 0.00 0.03 0.00 92 994.9
20260509100755 36 0 0.0 0.0 0.00 0.03 0.00 92 995.1
20260509095251 36 0 0.0 0.0 0.00 0.03 0.00 92 995.2
20260509093747 37 0 0.0 0.0 0.00 0.03 0.00 92 995.4
20260509092244 37 0 0.0 0.0 0.00 0.03 0.00 92 995.7
20260509090739 37 0 0.0 0.0 0.00 0.03 0.00 92 996.0
20260509085235 37 0 0.0 0.0 0.00 0.03 0.00 91 996.3
20260509083731 37 0 0.0 0.0 0.01 0.03 0.00 91 996.5
20260509082227 37 0 0.0 0.0 0.01 0.03 0.03 91 996.8